TimeCST,TemperatureF,Dew PointF,Humidity,Sea Level PressureIn,VisibilityMPH,Wind Direction,Wind SpeedMPH,Gust SpeedMPH,PrecipitationIn,Events,Conditions,WindDirDegrees,DateUTC
12:53 AM,46.9,44.1,90,30.06,3.0,North,4.6,-,N/A,,Overcast,360,2013-01-15 06:53:00
1:05 AM,46.4,44.6,93,30.06,4.0,NNW,5.8,-,N/A,,Overcast,330,2013-01-15 07:05:00
1:53 AM,46.9,44.1,90,30.05,5.0,NNW,6.9,-,0.00,Rain,Light Rain,330,2013-01-15 07:53:00
2:53 AM,46.9,44.1,90,30.04,4.0,NNW,6.9,-,0.01,Rain,Light Rain,330,2013-01-15 08:53:00
3:53 AM,46.9,45.0,93,30.03,3.0,NNW,9.2,-,0.00,Rain,Light Rain,340,2013-01-15 09:53:00
4:53 AM,46.9,45.0,93,30.03,5.0,North,9.2,-,0.01,Rain,Light Rain,350,2013-01-15 10:53:00
5:53 AM,46.9,45.0,93,30.03,9.0,North,6.9,-,0.00,,Overcast,360,2013-01-15 11:53:00
6:53 AM,46.9,45.0,93,30.05,9.0,NNW,9.2,-,N/A,,Overcast,340,2013-01-15 12:53:00
7:53 AM,46.9,45.0,93,30.09,10.0,NNW,10.4,-,N/A,,Overcast,340,2013-01-15 13:53:00
8:53 AM,46.9,45.0,93,30.09,10.0,North,9.2,-,N/A,,Overcast,360,2013-01-15 14:53:00
9:53 AM,46.9,44.1,90,30.12,10.0,North,10.4,-,N/A,,Overcast,350,2013-01-15 15:53:00
10:53 AM,48.0,44.1,86,30.12,10.0,NNW,9.2,-,N/A,,Overcast,340,2013-01-15 16:53:00
11:53 AM,46.9,44.1,90,30.09,6.0,North,12.7,-,0.00,Rain,Light Rain,360,2013-01-15 17:53:00
12:53 PM,46.9,45.0,93,30.07,5.0,North,12.7,-,0.00,Rain,Light Rain,350,2013-01-15 18:53:00
1:40 PM,46.4,42.8,87,30.06,8.0,North,13.8,-,0.00,,Overcast,360,2013-01-15 19:40:00
1:53 PM,46.9,43.0,86,30.06,6.0,NNW,15.0,-,0.00,Rain,Light Rain,340,2013-01-15 19:53:00
2:28 PM,46.4,44.6,93,30.06,4.0,North,10.4,-,0.00,Rain,Light Rain,350,2013-01-15 20:28:00
2:53 PM,46.9,43.0,86,30.06,6.0,North,12.7,-,0.00,,Overcast,350,2013-01-15 20:53:00
3:25 PM,46.4,41.0,81,30.07,10.0,NNW,11.5,-,N/A,,Overcast,330,2013-01-15 21:25:00
3:42 PM,46.4,41.0,81,30.08,10.0,NNW,13.8,-,N/A,,Overcast,340,2013-01-15 21:42:00
3:53 PM,46.9,39.9,77,30.08,10.0,North,13.8,-,N/A,,Overcast,350,2013-01-15 21:53:00
4:53 PM,48.0,39.9,74,30.12,10.0,North,13.8,-,N/A,,Overcast,350,2013-01-15 22:53:00
5:53 PM,48.0,39.9,74,30.13,10.0,North,10.4,-,N/A,,Overcast,360,2013-01-15 23:53:00
6:53 PM,48.0,39.9,74,30.14,10.0,North,9.2,-,N/A,,Overcast,360,2013-01-16 00:53:00
7:53 PM,48.0,39.0,71,30.17,10.0,North,10.4,-,N/A,,Overcast,360,2013-01-16 01:53:00
8:53 PM,46.9,39.0,74,30.19,10.0,North,6.9,-,N/A,,Overcast,350,2013-01-16 02:53:00
9:53 PM,46.9,37.9,71,30.20,10.0,NNW,10.4,-,N/A,,Overcast,340,2013-01-16 03:53:00
10:53 PM,46.9,37.9,71,30.23,10.0,North,16.1,-,N/A,,Overcast,350,2013-01-16 04:53:00
11:53 PM,46.9,36.0,66,30.25,10.0,NNW,12.7,-,N/A,,Overcast,340,2013-01-16 05:53:00